When you browse on this site, cookies collect data to enhance your experience and personalize the content and advertising you see.
Visit our Privacy Policy to learn more. By continuing to use the site, you agree to this use of cookies and data.
  • In Sweden
  • List of Countries
  • For 7 days
  • Water Temperature
  • Weather Map
  • Weather Widgets
  • user-avatar
    Login

    Hourly Weather Santiago del Estero

    Today, 18 September, Wednesday

    Time Temperature Precipitation Wind Pressure Humidity
    00:00 +19°C° 0 mm 1 mps 742 mmHg 36%
    01:00 +17°C° 0 mm 2 mps 742 mmHg 37%
    02:00 +17°C° 0 mm 2 mps 742 mmHg 36%
    03:00 +16°C° 0 mm 2 mps 742 mmHg 38%
    04:00 +14°C° 0 mm 3 mps 742 mmHg 39%
    05:00 +13°C° 0 mm 3 mps 741 mmHg 41%
    06:00 +16°C° 0 mm 2 mps 742 mmHg 38%
    07:00 +18°C° 0 mm 2 mps 742 mmHg 36%
    08:00 +20°C° 0 mm 1 mps 743 mmHg 33%
    09:00 +21°C° 0 mm 2 mps 742 mmHg 30%
    10:00 +25°C° 0 mm 3 mps 742 mmHg 27%
    11:00 +27°C° 0 mm 4 mps 742 mmHg 24%
    12:00 +29°C° 0 mm 4 mps 740 mmHg 24%
    13:00 +30°C° 0 mm 4 mps 739 mmHg 24%
    14:00 +32°C° 0 mm 5 mps 738 mmHg 24%
    15:00 +32°C° 0 mm 5 mps 737 mmHg 25%
    16:00 +30°C° 0 mm 5 mps 736 mmHg 26%
    17:00 +30°C° 0 mm 5 mps 735 mmHg 27%
    18:00 +28°C° 0 mm 5 mps 735 mmHg 30%
    19:00 +26°C° 0 mm 5 mps 735 mmHg 33%
    20:00 +23°C° 0 mm 5 mps 735 mmHg 37%
    21:00 +22°C° 0 mm 4 mps 735 mmHg 38%
    22:00 +21°C° 0 mm 4 mps 735 mmHg 39%
    23:00 +20°C° 0 mm 4 mps 735 mmHg 41%

    Tomorrow, 19 September, Thursday

    Time Temperature Precipitation Wind Pressure Humidity
    00:00 +19°C° 0 mm 4 mps 734 mmHg 42%
    01:00 +19°C° 0 mm 4 mps 733 mmHg 44%
    02:00 +18°C° 0 mm 4 mps 732 mmHg 45%
    03:00 +17°C° 0 mm 4 mps 732 mmHg 48%
    04:00 +17°C° 0 mm 3 mps 732 mmHg 50%
    05:00 +16°C° 0 mm 3 mps 732 mmHg 52%
    06:00 +18°C° 0 mm 3 mps 733 mmHg 50%
    07:00 +19°C° 0 mm 4 mps 733 mmHg 49%
    08:00 +21°C° 0 mm 4 mps 733 mmHg 48%
    09:00 +23°C° 0 mm 4 mps 734 mmHg 43%
    10:00 +27°C° 0 mm 3 mps 735 mmHg 38%
    11:00 +29°C° 0 mm 3 mps 736 mmHg 33%
    12:00 +29°C° 0 mm 6 mps 736 mmHg 31%
    13:00 +29°C° 0 mm 8 mps 737 mmHg 29%
    14:00 +29°C° 0 mm 11 mps 737 mmHg 26%
    15:00 +27°C° 0 mm 10 mps 738 mmHg 25%
    16:00 +26°C° 0 mm 10 mps 738 mmHg 23%
    17:00 +24°C° 0 mm 9 mps 739 mmHg 22%
    18:00 +22°C° 0 mm 8 mps 740 mmHg 22%
    19:00 +20°C° 0 mm 7 mps 741 mmHg 22%
    20:00 +17°C° 0 mm 6 mps 743 mmHg 22%
    21:00 +16°C° 0 mm 6 mps 743 mmHg 22%
    22:00 +16°C° 0 mm 5 mps 744 mmHg 22%
    23:00 +15°C° 0 mm 5 mps 745 mmHg 22%

    Day after tomorrow, 20 September, Friday

    Time Temperature Precipitation Wind Pressure Humidity
    00:00 +14°C° 0 mm 4 mps 745 mmHg 24%
    01:00 +13°C° 0 mm 4 mps 745 mmHg 25%
    02:00 +12°C° 0 mm 4 mps 746 mmHg 27%
    03:00 +11°C° 0 mm 3 mps 746 mmHg 28%
    04:00 +10°C° 0 mm 3 mps 746 mmHg 29%
    05:00 +9°C° 0 mm 2 mps 747 mmHg 30%
    06:00 +10°C° 0 mm 2 mps 747 mmHg 30%
    07:00 +11°C° 0 mm 3 mps 748 mmHg 29%
    08:00 +12°C° 0 mm 3 mps 748 mmHg 29%
    09:00 +14°C° 0 mm 3 mps 748 mmHg 27%
    10:00 +16°C° 0 mm 3 mps 749 mmHg 24%
    11:00 +17°C° 0 mm 3 mps 749 mmHg 22%
    12:00 +18°C° 0 mm 3 mps 748 mmHg 20%
    13:00 +20°C° 0 mm 2 mps 747 mmHg 18%
    14:00 +21°C° 0 mm 2 mps 747 mmHg 16%
    15:00 +23°C° 0 mm 2 mps 746 mmHg 16%
    16:00 +22°C° 0 mm 3 mps 746 mmHg 16%
    17:00 +22°C° 0 mm 3 mps 746 mmHg 16%
    18:00 +19°C° 0 mm 2 mps 747 mmHg 20%
    19:00 +17°C° 0 mm 2 mps 747 mmHg 24%
    20:00 +14°C° 0 mm 1 mps 748 mmHg 29%
    21:00 +13°C° 0 mm 1 mps 748 mmHg 32%
    22:00 +12°C° 0 mm 1 mps 748 mmHg 35%
    23:00 +12°C° 0 mm 1 mps 749 mmHg 38%

    21 September, Saturday

    Time Temperature Precipitation Wind Pressure Humidity
    00:00 +11°C° 0 mm 1 mps 748 mmHg 41%
    01:00 +11°C° 0 mm 1 mps 748 mmHg 43%
    02:00 +10°C° 0 mm 1 mps 748 mmHg 46%
    03:00 +10°C° 0 mm 1 mps 748 mmHg 49%
    04:00 +9°C° 0 mm 1 mps 748 mmHg 53%
    05:00 +9°C° 0 mm 1 mps 748 mmHg 56%
    06:00 +10°C° 0 mm 2 mps 748 mmHg 51%
    07:00 +13°C° 0 mm 2 mps 748 mmHg 46%
    08:00 +16°C° 0 mm 2 mps 749 mmHg 41%
    09:00 +18°C° 0 mm 3 mps 748 mmHg 36%
    10:00 +20°C° 0 mm 3 mps 748 mmHg 31%
    11:00 +24°C° 0 mm 3 mps 748 mmHg 26%
    12:00 +25°C° 0 mm 3 mps 747 mmHg 25%
    13:00 +26°C° 0 mm 3 mps 746 mmHg 23%
    14:00 +27°C° 0 mm 3 mps 745 mmHg 22%
    15:00 +27°C° 0 mm 3 mps 745 mmHg 22%
    16:00 +27°C° 0 mm 3 mps 745 mmHg 23%
    17:00 +28°C° 0 mm 3 mps 744 mmHg 23%
    18:00 +25°C° 0 mm 3 mps 745 mmHg 27%
    19:00 +22°C° 0 mm 3 mps 745 mmHg 31%
    20:00 +19°C° 0 mm 3 mps 746 mmHg 35%
    21:00 +18°C° 0 mm 3 mps 746 mmHg 33%
    22:00 +17°C° 0 mm 3 mps 746 mmHg 32%
    23:00 +16°C° 0 mm 3 mps 746 mmHg 31%

    22 September, Sunday

    Time Temperature Precipitation Wind Pressure Humidity
    00:00 +14°C° 0 mm 3 mps 746 mmHg 33%
    01:00 +14°C° 0 mm 2 mps 746 mmHg 35%
    02:00 +13°C° 0 mm 2 mps 746 mmHg 38%
    03:00 +13°C° 0 mm 2 mps 746 mmHg 40%
    04:00 +12°C° 0 mm 2 mps 746 mmHg 43%
    05:00 +12°C° 0 mm 2 mps 747 mmHg 45%
    06:00 +14°C° 0 mm 2 mps 747 mmHg 43%
    07:00 +16°C° 0 mm 3 mps 748 mmHg 40%
    08:00 +18°C° 0 mm 3 mps 748 mmHg 37%
    09:00 +20°C° 0 mm 4 mps 748 mmHg 33%
    10:00 +23°C° 0 mm 4 mps 748 mmHg 28%
    11:00 +26°C° 0 mm 5 mps 748 mmHg 24%
    12:00 +27°C° 0 mm 5 mps 747 mmHg 22%
    13:00 +29°C° 0 mm 5 mps 746 mmHg 21%
    14:00 +30°C° 0 mm 5 mps 745 mmHg 19%
    15:00 +30°C° 0 mm 5 mps 745 mmHg 19%
    16:00 +29°C° 0 mm 5 mps 744 mmHg 19%
    17:00 +29°C° 0 mm 5 mps 744 mmHg 19%
    18:00 +27°C° 0 mm 5 mps 744 mmHg 21%
    19:00 +23°C° 0 mm 5 mps 744 mmHg 22%
    20:00 +21°C° 0 mm 5 mps 745 mmHg 23%
    21:00 +20°C° 0 mm 5 mps 745 mmHg 26%
    22:00 +19°C° 0 mm 4 mps 745 mmHg 28%
    23:00 +18°C° 0 mm 4 mps 745 mmHg 31%

    23 September, Monday

    Time Temperature Precipitation Wind Pressure Humidity
    00:00 +17°C° 0 mm 4 mps 745 mmHg 35%
    01:00 +16°C° 0 mm 3 mps 744 mmHg 39%
    02:00 +15°C° 0 mm 2 mps 744 mmHg 44%
    03:00 +14°C° 0 mm 2 mps 744 mmHg 48%
    04:00 +13°C° 0 mm 2 mps 744 mmHg 52%
    05:00 +12°C° 0 mm 2 mps 743 mmHg 56%
    06:00 +14°C° 0 mm 2 mps 744 mmHg 52%
    07:00 +16°C° 0 mm 2 mps 745 mmHg 48%
    08:00 +18°C° 0 mm 3 mps 745 mmHg 45%
    09:00 +20°C° 0 mm 3 mps 745 mmHg 39%
    10:00 +23°C° 0 mm 2 mps 746 mmHg 34%
    11:00 +26°C° 0 mm 2 mps 746 mmHg 28%
    12:00 +27°C° 0 mm 2 mps 745 mmHg 26%
    13:00 +28°C° 0 mm 2 mps 745 mmHg 23%
    14:00 +30°C° 0 mm 2 mps 744 mmHg 21%
    15:00 +30°C° 0 mm 3 mps 744 mmHg 21%
    16:00 +30°C° 0 mm 3 mps 744 mmHg 21%
    17:00 +30°C° 0 mm 4 mps 744 mmHg 21%
    18:00 +27°C° 0 mm 4 mps 745 mmHg 26%
    19:00 +25°C° 0 mm 4 mps 746 mmHg 30%
    20:00 +21°C° 0 mm 4 mps 747 mmHg 35%
    21:00 +20°C° 0 mm 3 mps 747 mmHg 39%
    22:00 +19°C° 0 mm 3 mps 748 mmHg 42%
    23:00 +17°C° 0 mm 2 mps 748 mmHg 46%
    Show more